SM6PGP-2 Weather Reports


time (UTC)temp
C
wind
direction
speed
KPH
gust
KPH
rain 1hr
cm
rain 24hr
cm
rain mn
cm
humidity
%
barometer
mb
20260507214336 1 45 0.0 1.6 0.00 0.00 0.00 45 1017.7
20260507213830 2 45 0.0 0.0 0.00 0.00 0.00 45 1017.7
20260507213325 2 90 0.0 0.0 0.00 0.00 0.00 44 1017.6
20260507212820 2 90 0.0 0.0 0.00 0.00 0.00 44 1017.6
20260507212314 2 90 0.0 0.0 0.00 0.00 0.00 44 1017.5
20260507211810 2 90 0.0 0.0 0.00 0.00 0.00 44 1017.5
20260507211304 2 90 0.0 0.0 0.00 0.00 0.00 42 1017.4
20260507210759 2 90 0.0 0.0 0.00 0.00 0.00 41 1017.4
20260507210254 2 45 0.0 0.0 0.00 0.00 0.00 40 1017.3
20260507205748 3 45 0.0 0.0 0.00 0.00 0.00 39 1017.3
20260507205244 3 0 0.0 0.0 0.00 0.00 0.00 38 1017.3
20260507204738 3 0 1.6 1.6 0.00 0.00 0.00 39 1017.2
20260507204233 3 85 0.0 0.0 0.00 0.00 0.00 38 1017.2
20260507203728 3 90 0.0 0.0 0.00 0.00 0.00 37 1017.1
20260507203222 3 90 0.0 0.0 0.00 0.00 0.00 37 1017.2
20260507202718 3 45 0.0 0.0 0.00 0.00 0.00 37 1017.1
20260507202212 3 45 0.0 0.0 0.00 0.00 0.00 36 1017.1
20260507201707 4 45 0.0 0.0 0.00 0.00 0.00 35 1017.1
20260507201202 4 90 0.0 0.0 0.00 0.00 0.00 34 1017.1
20260507200656 4 0 0.0 3.2 0.00 0.00 0.00 34 1017.0
20260507200152 5 0 0.0 3.2 0.00 0.00 0.00 34 1016.9
20260507195646 5 31 1.6 4.8 0.00 0.00 0.00 34 1016.8
20260507194635 5 45 1.6 1.6 0.00 0.00 0.00 33 1016.8
20260507194130 5 36 1.6 3.2 0.00 0.00 0.00 31 1016.8
20260507193626 5 0 1.6 3.2 0.00 0.00 0.00 31 1016.7
20260507193120 6 45 1.6 4.8 0.00 0.00 0.00 30 1016.6
20260507192615 6 18 1.6 4.8 0.00 0.00 0.00 29 1016.6
20260507192110 6 90 1.6 4.8 0.00 0.00 0.00 29 1016.4
20260507191604 6 0 1.6 4.8 0.00 0.00 0.00 27 1016.5
20260507191100 7 351 1.6 3.2 0.00 0.00 0.46 27 1016.4
20260507190554 7 45 1.6 4.8 0.00 0.00 0.46 26 1016.3
20260507190049 7 0 3.2 4.8 0.00 0.00 0.46 25 1016.3
20260507185544 8 45 1.6 6.4 0.00 0.00 0.46 24 1016.2
20260507185038 8 0 1.6 11.3 0.00 0.00 0.46 24 1016.2
20260507184534 8 45 0.0 8.0 0.00 0.00 0.46 23 1016.0
20260507184028 8 18 1.6 4.8 0.00 0.00 0.46 22 1016.1
20260507183523 8 342 1.6 3.2 0.00 0.00 0.46 21 1016.1
20260507183018 9 324 3.2 6.4 0.00 0.00 0.46 20 1016.1
20260507182512 9 4 1.6 3.2 0.00 0.00 0.46 20 1016.0
20260507182008 10 355 3.2 6.4 0.00 0.00 0.46 18 1016.0
20260507181502 10 337 4.8 6.4 0.00 0.00 0.46 17 1015.8
20260507180957 10 0 4.8 11.3 0.00 0.00 0.46 17 1015.9
20260507180452 10 351 6.4 9.7 0.00 0.00 0.46 16 1015.9
20260507175946 10 31 0.0 3.2 0.00 0.00 0.46 15 1015.8
20260507175442 11 9 4.8 6.4 0.00 0.00 0.46 14 1015.7
20260507174936 11 18 1.6 8.0 0.00 0.00 0.46 13 1015.8
20260507174431 12 342 4.8 11.3 0.00 0.00 0.46 13 1015.7
20260507173926 12 45 0.0 11.3 0.00 0.00 0.46 13 1015.7
20260507173420 12 342 3.2 9.7 0.00 0.00 0.46 10 1015.8
20260507172916 13 328 8.0 16.1 0.00 0.00 0.46 10 1015.7
20260507172410 13 45 0.0 11.3 0.00 0.00 0.46 10 1015.6
20260507171905 13 342 3.2 8.0 0.00 0.00 0.46 9 1015.7
20260507171400 13 355 11.3 11.3 0.00 0.00 0.46 8 1015.6
20260507170854 13 0 1.6 12.9 0.00 0.00 0.46 8 1015.5
20260507170350 13 292 11.3 11.3 0.00 0.00 0.46 7 1015.5
20260507165844 13 315 3.2 14.5 0.00 0.00 0.46 6 1015.6
20260507165339 14 333 6.4 11.3 0.00 0.00 0.46 10 1015.5
20260507164834 14 337 3.2 16.1 0.00 0.00 0.46 13 1015.4
20260507164328 14 342 9.7 9.7 0.00 0.00 0.46 12 1015.4
20260507163824 13 0 3.2 9.7 0.00 0.00 0.46 12 1015.5
20260507163318 13 351 3.2 12.9 0.00 0.00 0.46 13 1015.4
20260507162813 13 310 3.2 12.9 0.00 0.00 0.46 12 1015.4
20260507162308 13 301 6.4 19.3 0.00 0.00 0.46 12 1015.4
20260507161802 13 306 8.0 16.1 0.00 0.00 0.46 12 1015.3
20260507161258 13 342 11.3 16.1 0.00 0.00 0.46 10 1015.3
20260507160752 13 310 8.0 14.5 0.00 0.00 0.46 12 1015.4
20260507160247 13 306 9.7 14.5 0.00 0.00 0.43 12 1015.4
20260507155742 13 9 6.4 14.5 0.00 0.00 0.43 14 1015.4
20260507155236 13 315 6.4 19.3 0.00 0.00 0.43 12 1015.4
20260507154732 13 274 6.4 16.1 0.00 0.00 0.43 12 1015.4
20260507154226 13 306 6.4 12.9 0.00 0.00 0.43 15 1015.4
20260507153721 13 67 4.8 25.7 0.00 0.00 0.43 15 1015.4
20260507153216 13 306 9.7 22.5 0.00 0.00 0.43 15 1015.3
20260507152710 13 288 14.5 19.3 0.00 0.00 0.43 14 1015.2
20260507152206 14 297 11.3 22.5 0.00 0.00 0.43 12 1015.2
20260507151700 14 252 14.5 20.9 0.00 0.00 0.43 12 1015.1
20260507151155 15 274 12.9 22.5 0.00 0.00 0.43 13 1015.3
20260507150650 15 270 16.1 20.9 0.00 0.00 0.43 12 1015.2
20260507150144 15 270 9.7 20.9 0.00 0.00 0.43 12 1015.2
20260507145640 15 306 4.8 17.7 0.00 0.00 0.43 12 1015.2
20260507145134 14 324 4.8 17.7 0.00 0.00 0.43 15 1015.2
20260507144629 14 297 12.9 16.1 0.00 0.00 0.43 13 1015.2
20260507144124 14 247 9.7 25.7 0.00 0.00 0.43 12 1015.0
20260507143618 14 270 8.0 25.7 0.00 0.00 0.43 12 1015.1
20260507143114 14 252 16.1 22.5 0.00 0.00 0.43 13 1015.1
20260507142608 14 261 12.9 25.7 0.00 0.00 0.43 15 1015.2
20260507142103 15 279 9.7 20.9 0.00 0.00 0.43 10 1015.2
20260507141558 15 283 6.4 17.7 0.00 0.00 0.33 13 1015.2
20260507141053 14 324 11.3 22.5 0.00 0.00 0.33 12 1015.3
20260507140548 14 355 6.4 17.7 0.00 0.00 0.33 16 1015.2
20260507140042 14 288 16.1 24.1 0.00 0.00 0.33 14 1015.1
20260507135636 14 288 14.5 14.5 0.00 0.00 0.33 15 1015.2
20260507135633 14 297 8.0 17.7 0.00 0.00 0.33 16 1015.2
20260507135631 14 315 20.9 24.1 0.00 0.00 0.33 17 1015.3
20260507135537 14 288 14.5 14.5 0.00 0.00 0.33 15 1015.2
20260507135032 14 297 8.0 17.7 0.00 0.00 0.33 16 1015.2
20260507134527 14 315 20.9 24.1 0.00 0.00 0.33 17 1015.3
20260507134022 14 274 24.1 27.4 0.00 0.00 0.33 17 1015.2
20260507133516 14 265 11.3 20.9 0.00 0.00 0.33 17 1015.2
20260507133011 14 292 17.7 32.2 0.00 0.00 0.33 16 1015.2
20260507132506 14 274 12.9 22.5 0.00 0.00 0.33 14 1015.2
20260507132001 14 310 16.1 19.3 0.00 0.00 0.33 16 1015.2
20260507131456 14 256 8.0 24.1 0.00 0.00 0.33 13 1015.0
20260507130950 14 279 4.8 14.5 0.00 0.00 0.33 15 1015.1
20260507130445 14 306 8.0 17.7 0.00 0.00 0.33 15 1015.1
20260507125940 14 270 9.7 24.1 0.00 0.00 0.33 15 1015.2
20260507125435 14 297 8.0 25.7 0.00 0.00 0.33 16 1015.2
20260507124930 14 342 17.7 17.7 0.00 0.00 0.33 19 1015.0
20260507124424 14 306 4.8 17.7 0.00 0.00 0.33 17 1015.1
20260507123919 14 315 17.7 25.7 0.00 0.00 0.33 18 1015.0
20260507123414 13 279 6.4 20.9 0.00 0.00 0.33 20 1015.0
20260507122909 13 279 17.7 22.5 0.00 0.00 0.33 20 1015.0
20260507122404 13 310 8.0 16.1 0.00 0.00 0.33 20 1015.0
20260507121858 13 315 6.4 20.9 0.00 0.00 0.33 22 1015.0
20260507121353 13 146 9.7 17.7 0.00 0.00 0.33 24 1015.0
20260507120848 13 252 9.7 19.3 0.00 0.00 0.28 25 1014.9
20260507120343 13 292 19.3 19.3 0.00 0.00 0.28 24 1014.8
20260507115838 13 306 9.7 16.1 0.00 0.00 0.28 24 1014.9
20260507115332 13 320 11.3 17.7 0.00 0.00 0.28 27 1014.9
20260507114827 13 283 8.0 20.9 0.00 0.00 0.28 25 1014.8
20260507114322 13 297 19.3 22.5 0.00 0.00 0.28 29 1014.9
20260507113817 13 288 24.1 24.1 0.00 0.00 0.28 28 1014.9
20260507113312 13 320 17.7 17.7 0.00 0.00 0.28 28 1015.0
20260507112806 13 18 6.4 19.3 0.00 0.00 0.28 29 1015.0
20260507112301 13 297 9.7 27.4 0.00 0.00 0.28 26 1014.9
20260507111756 13 306 12.9 24.1 0.00 0.00 0.28 27 1015.0
20260507111251 13 261 6.4 27.4 0.00 0.00 0.28 32 1015.1
20260507110746 13 261 19.3 22.5 0.00 0.00 0.28 31 1015.0
20260507110240 13 315 8.0 27.4 0.00 0.00 0.28 35 1015.0
20260507105735 13 0 1.6 32.2 0.00 0.00 0.28 29 1014.9
20260507105230 13 270 12.9 14.5 0.00 0.00 0.28 27 1014.8
20260507104725 13 310 4.8 12.9 0.00 0.00 0.28 30 1014.8
20260507104220 12 270 14.5 22.5 0.00 0.00 0.28 30 1014.8
20260507103714 12 261 22.5 27.4 0.00 0.00 0.28 29 1014.7
20260507103209 12 265 9.7 22.5 0.00 0.00 0.28 28 1014.7
20260507102704 12 261 20.9 29.0 0.00 0.00 0.28 27 1014.7
20260507102159 13 270 24.1 29.0 0.00 0.00 0.28 25 1014.6
20260507101654 13 247 9.7 22.5 0.00 0.00 0.28 25 1014.6
20260507101148 13 238 20.9 25.7 0.00 0.00 0.28 27 1014.5
20260507100643 13 351 6.4 20.9 0.00 0.00 0.28 27 1014.6
20260507100138 13 252 16.1 17.7 0.00 0.00 0.28 30 1014.4
20260507095633 13 256 14.5 16.1 0.00 0.00 0.28 34 1014.5
20260507095128 13 256 11.3 14.5 0.00 0.00 0.28 31 1014.5
20260507094622 13 274 12.9 12.9 0.00 0.00 0.28 34 1014.5
20260507094117 13 297 9.7 22.5 0.00 0.00 0.28 34 1014.5
20260507093612 13 270 4.8 17.7 0.00 0.00 0.28 37 1014.5
20260507093107 13 270 6.4 8.0 0.00 0.00 0.28 35 1014.3
20260507092602 13 243 20.9 25.7 0.00 0.00 0.28 36 1014.3
20260507092056 13 292 8.0 20.9 0.00 0.00 0.28 35 1014.3
20260507091551 12 279 6.4 19.3 0.00 0.00 0.28 36 1014.3
20260507091046 12 252 9.7 27.4 0.00 0.00 0.28 36 1014.2
20260507090541 12 270 17.7 20.9 0.00 0.00 0.28 35 1014.1
20260507090036 12 292 6.4 27.4 0.00 0.00 0.28 34 1014.2
20260507085530 13 288 9.7 27.4 0.00 0.00 0.28 32 1014.2
20260507085025 14 274 17.7 17.7 0.00 0.00 0.28 31 1014.2
20260507084520 14 270 12.9 14.5 0.00 0.00 0.28 34 1014.1
20260507084015 13 27 0.0 11.3 0.00 0.00 0.28 32 1014.2
20260507083510 13 275 6.4 22.5 0.00 0.00 0.28 34 1014.2
20260507083005 13 297 6.4 14.5 0.00 0.00 0.28 33 1014.1
20260507082459 13 306 6.4 19.3 0.00 0.00 0.23 33 1014.1
20260507081954 13 243 3.2 14.5 0.00 0.00 0.23 35 1014.1
20260507081449 13 283 6.4 12.9 0.00 0.00 0.23 36 1014.0
20260507080944 12 279 4.8 17.7 0.00 0.00 0.23 36 1014.0
20260507080439 12 288 9.7 11.3 0.00 0.00 0.23 39 1013.8
20260507075933 12 163 4.8 22.5 0.00 0.00 0.23 38 1013.9
20260507075428 12 315 3.2 14.5 0.00 0.00 0.23 40 1013.9
20260507074923 12 306 6.4 17.7 0.00 0.00 0.23 42 1013.8
20260507074418 12 270 9.7 19.3 0.00 0.00 0.23 42 1013.7
20260507073912 12 256 16.1 17.7 0.00 0.00 0.23 42 1013.7
20260507073407 12 234 16.1 16.1 0.00 0.00 0.23 42 1013.7
20260507072902 12 265 11.3 19.3 0.00 0.00 0.23 43 1013.6
20260507072357 12 319 6.4 14.5 0.00 0.00 0.23 42 1013.7
20260507071852 12 256 12.9 16.1 0.00 0.00 0.23 43 1013.6
20260507071346 12 234 9.7 12.9 0.00 0.00 0.18 44 1013.6
20260507070841 12 315 1.6 11.3 0.00 0.00 0.18 43 1013.6
20260507070336 12 297 3.2 12.9 0.00 0.00 0.18 44 1013.6
20260507065831 12 225 9.7 16.1 0.00 0.00 0.18 47 1013.6
20260507065326 12 333 1.6 8.0 0.00 0.00 0.18 47 1013.6
20260507064821 12 180 3.2 3.2 0.00 0.00 0.15 50 1013.5
20260507064315 12 90 1.6 1.6 0.00 0.00 0.15 52 1013.5
20260507063810 11 135 1.6 3.2 0.00 0.00 0.15 53 1013.5
20260507063305 11 180 1.6 3.2 0.00 0.00 0.15 55 1013.7
20260507062800 10 135 0.0 3.2 0.00 0.00 0.13 56 1013.5
20260507062255 10 90 0.0 0.0 0.00 0.00 0.13 55 1013.4
20260507061749 10 126 1.6 1.6 0.00 0.00 0.13 58 1013.5
20260507061244 9 180 3.2 3.2 0.00 0.00 0.10 60 1013.5
20260507060739 8 85 0.0 3.2 0.00 0.00 0.10 60 1013.4
20260507055724 7 0 0.0 3.2 0.00 0.00 0.10 61 1013.3
20260507055218 7 0 3.2 3.2 0.00 0.00 0.10 61 1013.3
20260507054713 6 45 1.6 1.6 0.00 0.00 0.10 66 1013.3
20260507054208 6 90 0.0 3.2 0.00 0.00 0.10 67 1013.3
20260507053703 5 45 1.6 1.6 0.00 0.00 0.10 68 1013.2
20260507053158 5 27 3.2 4.8 0.00 0.00 0.10 69 1013.2
20260507052652 4 31 1.6 4.8 0.00 0.00 0.10 71 1013.0
20260507052147 3 0 3.2 4.8 0.00 0.00 0.10 72 1013.0
20260507051642 3 45 1.6 4.8 0.00 0.00 0.10 74 1013.0
20260507051137 2 4 3.2 4.8 0.00 0.00 0.10 75 1012.9
20260507050632 2 0 3.2 4.8 0.00 0.00 0.10 75 1012.9
20260507050126 1 0 4.8 4.8 0.00 0.00 0.10 76 1012.8
20260507045621 0 45 0.0 4.8 0.00 0.00 0.10 76 1012.6
20260507045116 0 45 4.8 6.4 0.00 0.00 0.10 76 1012.6
20260507044611 -1 45 3.2 3.2 0.00 0.00 0.10 76 1012.5
20260507044106 -1 45 4.8 4.8 0.00 0.00 0.10 75 1012.5
20260507043600 -2 4 1.6 4.8 0.00 0.00 0.08 74 1012.6
20260507043055 -2 0 1.6 4.8 0.00 0.00 0.08 74 1012.5
20260507042550 -2 0 4.8 6.4 0.00 0.00 0.08 73 1012.4
20260507042045 -3 4 3.2 4.8 0.00 0.00 0.08 73 1012.5
20260507041540 -3 45 1.6 4.8 0.00 0.00 0.08 73 1012.4
20260507041034 -3 45 0.0 1.6 0.00 0.00 0.08 73 1012.4
20260507040529 -3 45 1.6 4.8 0.00 0.00 0.08 73 1012.4
20260507040024 -3 0 4.8 4.8 0.00 0.00 0.08 72 1012.3
20260507035519 -3 45 0.0 3.2 0.00 0.00 0.08 72 1012.2
20260507035013 -3 0 3.2 3.2 0.00 0.00 0.08 72 1012.2
20260507034508 -3 45 0.0 1.6 0.00 0.00 0.08 71 1012.2
20260507034003 -3 45 0.0 1.6 0.00 0.00 0.08 72 1012.1
20260507033459 -3 0 1.6 3.2 0.00 0.00 0.08 72 1012.2
20260507032953 -3 0 1.6 4.8 0.00 0.00 0.08 72 1012.1
20260507032447 -3 0 3.2 3.2 0.00 0.00 0.08 71 1012.1
20260507031942 -3 45 1.6 1.6 0.00 0.00 0.08 71 1012.1
20260507031437 -3 45 1.6 4.8 0.00 0.00 0.08 71 1012.1
20260507030932 -3 0 4.8 4.8 0.00 0.00 0.08 71 1012.1
20260507030427 -3 45 1.6 3.2 0.00 0.00 0.05 70 1012.1
20260507025921 -3 45 1.6 1.6 0.00 0.00 0.05 71 1012.1
20260507025416 -3 45 0.0 1.6 0.00 0.00 0.05 70 1012.0
20260507024911 -3 45 1.6 1.6 0.00 0.00 0.05 70 1012.1
20260507024406 -3 45 0.0 4.8 0.00 0.00 0.05 70 1012.0
20260507023901 -3 0 3.2 4.8 0.00 0.00 0.05 70 1011.9
20260507023355 -3 0 1.6 1.6 0.00 0.00 0.05 70 1011.8
20260507022850 -3 0 0.0 3.2 0.00 0.00 0.05 69 1011.7
20260507022345 -3 45 0.0 0.0 0.00 0.00 0.05 69 1011.7
20260507021840 -3 45 0.0 0.0 0.00 0.00 0.05 69 1011.8
20260507021335 -2 45 0.0 0.0 0.00 0.00 0.03 69 1011.8
20260507020829 -2 45 0.0 0.0 0.00 0.00 0.03 68 1011.8
20260507020324 -2 45 0.0 0.0 0.00 0.00 0.03 69 1011.7
20260507015819 -2 45 0.0 0.0 0.00 0.00 0.03 68 1011.8
20260507015314 -2 45 0.0 0.0 0.00 0.00 0.03 69 1011.8
20260507014809 -2 45 0.0 0.0 0.00 0.00 0.03 69 1011.8
20260507014303 -2 45 0.0 3.2 0.00 0.00 0.03 69 1011.9
20260507013758 -2 45 1.6 3.2 0.00 0.00 0.03 69 1011.7
20260507013253 -2 9 3.2 3.2 0.00 0.00 0.03 69 1011.7
20260507012748 -2 0 1.6 3.2 0.00 0.00 0.03 69 1011.7
20260507012243 -2 0 4.8 6.4 0.00 0.00 0.03 68 1011.9
20260507011737 -2 45 1.6 3.2 0.00 0.00 0.03 67 1011.7
20260507011232 -2 0 1.6 3.2 0.00 0.00 0.00 67 1011.6
20260507010727 -2 0 0.0 0.0 0.00 0.00 0.00 67 1011.6
20260507010222 -2 45 0.0 0.0 0.00 0.00 0.00 67 1011.6
20260507005717 -2 45 0.0 0.0 0.00 0.00 0.00 66 1011.5
20260507005211 -2 45 0.0 0.0 0.00 0.00 0.00 66 1011.5
20260507004706 -2 45 0.0 1.6 0.00 0.00 0.00 66 1011.5
20260507004201 -2 45 0.0 3.2 0.00 0.00 0.00 66 1011.6
20260507003656 -2 0 3.2 4.8 0.00 0.00 0.00 66 1011.5
20260507003151 -2 0 0.0 1.6 0.00 0.00 0.00 65 1011.3
20260507002645 -1 45 0.0 0.0 0.00 0.00 0.00 66 1011.4
20260507002140 -1 90 0.0 0.0 0.00 0.00 0.00 65 1011.4
20260507001635 -1 90 0.0 1.6 0.00 0.00 0.00 65 1011.4
20260507001130 -1 0 1.6 3.2 0.00 0.00 0.00 64 1011.4
20260507000625 -1 0 3.2 4.8 0.00 0.00 0.00 64 1011.3
20260507000119 -1 45 1.6 1.6 0.00 0.00 0.00 63 1011.3
20260506235614 -1 45 0.0 0.0 0.00 0.00 0.00 63 1011.2
20260506235109 -1 45 0.0 0.0 0.00 0.00 0.00 63 1011.3
20260506234604 -1 0 0.0 0.0 0.00 0.00 0.00 63 1011.3
20260506234059 -1 0 0.0 0.0 0.00 0.00 0.00 63 1011.3
20260506233553 -1 0 0.0 3.2 0.00 0.00 0.00 62 1011.2
20260506233048 -1 45 0.0 0.0 0.00 0.00 0.00 62 1011.2
20260506232543 -1 45 0.0 0.0 0.00 0.00 0.00 61 1011.2
20260506232038 -1 90 0.0 0.0 0.00 0.00 0.00 60 1011.3
20260506231533 -1 90 0.0 0.0 0.00 0.00 0.00 60 1011.3
20260506231027 -1 90 0.0 0.0 0.00 0.00 0.00 59 1011.3
20260506230522 0 90 0.0 0.0 0.00 0.00 0.00 59 1011.2
20260506230017 0 90 0.0 0.0 0.00 0.00 0.00 59 1011.2
20260506225512 0 135 0.0 0.0 0.00 0.00 0.00 58 1011.1
20260506225007 0 135 0.0 0.0 0.00 0.00 0.00 58 1011.1
20260506224501 0 0 0.0 0.0 0.00 0.00 0.00 58 1011.0
20260506223956 0 0 3.2 3.2 0.00 0.00 0.00 57 1011.0
20260506223451 0 0 1.6 3.2 0.00 0.00 0.00 57 1010.9
20260506222946 0 0 1.6 1.6 0.00 0.00 0.00 56 1010.9
20260506222441 0 0 1.6 1.6 0.00 0.00 0.00 56 1010.9
20260506221935 0 45 0.0 0.0 0.00 0.00 0.00 55 1010.8
20260506221430 0 45 0.0 0.0 0.00 0.00 0.00 55 1010.8
20260506220925 0 45 0.0 0.0 0.00 0.00 0.00 55 1010.8
20260506220420 0 45 0.0 0.0 0.00 0.00 0.00 54 1010.7
20260506215915 0 45 0.0 0.0 0.00 0.00 0.00 53 1010.7
20260506215409 0 45 0.0 0.0 0.00 0.00 0.00 53 1010.7
20260506214904 0 180 0.0 0.0 0.00 0.00 0.00 51 1010.6